Zurück zum Katalog

FREGAT R/B

LostMEO
NORAD 41176·ROCKET BODY·🇷🇺 Russia

Gestartet Dec 17, 2015 von Guiana Space Centre

Loading…

Nächste Überflüge (nächste 24 Stunden)

TLE

VeraltetSource: Space-Track

Epoche: Aug 5, 2026, 02:29 UTC

1 41176U 15079C   26217.10381632 -.00000004  00000-0  00000-0 0  9998
2 41176  55.7847 103.9466 0013127 257.8780 102.0428  1.67560796 65079

Verfolge FREGAT R/B in Echtzeit mit AllMySat

Download on the App Store